Location: SBMNH
(34.4407°N, 119.7157°W)
Time: 21:50:33
(UTC-07:00)

X-37B - Pass Details

Date: 17 August 2022
Orbit: 329 x 342 km, 45.0° (Epoch: 29 September)

Event Time Altitude Azimuth Distance (km) Brightness Sun altitude
Exits shadow 05:43:32 10° 268° (W) 1,259 2.6 -8.2°
Maximum altitude 05:45:35 19° 221° (SW) 896 1.9 -7.8°
Drops below altitude 10° 05:47:42 10° 173° (S) 1,275 3.0 -7.4°
Sets 05:50:03 0° 154° (SSE) 2,110 4.4 -6.9°
